Location: Newark
(34.1333°N, 7.9667°W)
Time: 19:26:19
(UTC+00:00)

FO-29 - Pass Details

Date: 14 June 2023
Orbit: 800 x 1321 km, 98.5° (Epoch: 24 September)

Event Time Altitude Azimuth Distance (km) Brightness Sun altitude
Rises 04:21:49 0° 20° (NNE) 3,531 13.5 -10.8°
Reaches altitude 10° 04:24:13 10° 26° (NNE) 2,648 12.9 -10.4°
Maximum altitude 04:29:57 48° 101° (E) 1,303 10.5 -9.5°
Drops below altitude 10° 04:36:23 10° 174° (S) 2,977 11.8 -8.4°
Sets 04:39:13 0° 179° (S) 4,010 12.4 -7.9°
